• In Hungary
  • List of Countries
  • For 7 days
  • Water Temperature
  • Satellite Maps
  • Weather Map
  • News
  • Weather Widgets
  • user-avatar
    Login

    Hourly Weather Yanovo-Grushevskiy

    Today, 15 August, Wednesday

    Time Temperature Precipitation Wind Pressure Humidity
    00:00 +25°C° 0 mm 3 mps 760 mmHg 40%
    01:00 +25°C° 0 mm 3 mps 760 mmHg 42%
    02:00 +24°C° 0 mm 3 mps 760 mmHg 44%
    03:00 +24°C° 0 mm 3 mps 760 mmHg 45%
    04:00 +22°C° 0 mm 3 mps 760 mmHg 47%
    05:00 +22°C° 0 mm 3 mps 760 mmHg 48%
    06:00 +22°C° 0 mm 3 mps 761 mmHg 50%
    07:00 +25°C° 0 mm 3 mps 761 mmHg 45%
    08:00 +28°C° 0 mm 3 mps 761 mmHg 40%
    09:00 +30°C° 0 mm 4 mps 761 mmHg 35%
    10:00 +33°C° 0 mm 4 mps 761 mmHg 32%
    11:00 +34°C° 0 mm 3 mps 761 mmHg 28%
    12:00 +36°C° 0 mm 3 mps 760 mmHg 25%
    13:00 +36°C° 0 mm 3 mps 760 mmHg 24%
    14:00 +37°C° 0 mm 3 mps 760 mmHg 22%
    15:00 +37°C° 0 mm 3 mps 760 mmHg 21%
    16:00 +37°C° 0 mm 3 mps 759 mmHg 22%
    17:00 +37°C° 0 mm 3 mps 759 mmHg 23%
    18:00 +36°C° 0 mm 4 mps 759 mmHg 24%
    19:00 +34°C° 0 mm 4 mps 759 mmHg 26%
    20:00 +32°C° 0 mm 4 mps 759 mmHg 29%
    21:00 +29°C° 0 mm 5 mps 760 mmHg 32%
    22:00 +28°C° 0 mm 4 mps 760 mmHg 33%
    23:00 +28°C° 0 mm 4 mps 760 mmHg 33%

    Tomorrow, 16 August, Thursday

    Time Temperature Precipitation Wind Pressure Humidity
    00:00 +27°C° 0 mm 4 mps 760 mmHg 34%
    01:00 +26°C° 0 mm 4 mps 760 mmHg 35%
    02:00 +26°C° 0 mm 4 mps 760 mmHg 37%
    03:00 +25°C° 0 mm 4 mps 760 mmHg 38%
    04:00 +25°C° 0 mm 3 mps 760 mmHg 40%
    05:00 +24°C° 0 mm 3 mps 760 mmHg 43%
    06:00 +24°C° 0 mm 3 mps 760 mmHg 45%
    07:00 +26°C° 0 mm 3 mps 760 mmHg 40%
    08:00 +29°C° 0 mm 3 mps 760 mmHg 36%
    09:00 +31°C° 0 mm 3 mps 760 mmHg 31%
    10:00 +34°C° 0 mm 4 mps 760 mmHg 28%
    11:00 +35°C° 0 mm 4 mps 759 mmHg 24%
    12:00 +37°C° 0 mm 4 mps 759 mmHg 21%
    13:00 +37°C° 0 mm 4 mps 759 mmHg 20%
    14:00 +38°C° 0 mm 4 mps 759 mmHg 19%
    15:00 +38°C° 0 mm 4 mps 758 mmHg 18%
    16:00 +38°C° 0 mm 4 mps 758 mmHg 19%
    17:00 +37°C° 0 mm 4 mps 758 mmHg 20%
    18:00 +37°C° 0 mm 4 mps 758 mmHg 21%
    19:00 +35°C° 0 mm 3 mps 758 mmHg 24%
    20:00 +33°C° 0 mm 3 mps 758 mmHg 26%
    21:00 +30°C° 0 mm 3 mps 758 mmHg 29%
    22:00 +29°C° 0 mm 3 mps 758 mmHg 30%
    23:00 +28°C° 0 mm 3 mps 758 mmHg 32%

    Day after tomorrow, 17 August, Friday

    Time Temperature Precipitation Wind Pressure Humidity
    00:00 +27°C° 0 mm 3 mps 758 mmHg 33%
    01:00 +27°C° 0 mm 3 mps 758 mmHg 34%
    02:00 +26°C° 0 mm 3 mps 758 mmHg 36%
    03:00 +26°C° 0 mm 3 mps 758 mmHg 37%
    04:00 +26°C° 0 mm 2 mps 758 mmHg 39%
    05:00 +25°C° 0 mm 2 mps 758 mmHg 41%
    06:00 +25°C° 0 mm 2 mps 759 mmHg 43%
    07:00 +27°C° 0 mm 2 mps 759 mmHg 39%
    08:00 +30°C° 0 mm 3 mps 759 mmHg 35%
    09:00 +33°C° 0 mm 3 mps 759 mmHg 31%
    10:00 +34°C° 0 mm 4 mps 759 mmHg 28%
    11:00 +36°C° 0 mm 4 mps 758 mmHg 24%
    12:00 +37°C° 0 mm 5 mps 758 mmHg 21%
    13:00 +37°C° 0 mm 5 mps 758 mmHg 21%
    14:00 +37°C° 0 mm 5 mps 758 mmHg 22%
    15:00 +37°C° 0 mm 5 mps 757 mmHg 22%
    16:00 +37°C° 0 mm 5 mps 757 mmHg 22%
    17:00 +36°C° 0 mm 5 mps 757 mmHg 22%
    18:00 +36°C° 0 mm 5 mps 757 mmHg 22%
    19:00 +35°C° 0 mm 5 mps 757 mmHg 25%
    20:00 +33°C° 0 mm 4 mps 758 mmHg 27%
    21:00 +32°C° 0 mm 4 mps 758 mmHg 29%
    22:00 +30°C° 0 mm 4 mps 758 mmHg 31%
    23:00 +29°C° 0 mm 4 mps 758 mmHg 32%

    18 August, Saturday

    Time Temperature Precipitation Wind Pressure Humidity
    00:00 +28°C° 0 mm 4 mps 758 mmHg 34%
    01:00 +28°C° 0 mm 4 mps 758 mmHg 36%
    02:00 +27°C° 0 mm 4 mps 758 mmHg 37%
    03:00 +26°C° 0 mm 4 mps 758 mmHg 39%
    04:00 +26°C° 0 mm 4 mps 758 mmHg 40%
    05:00 +26°C° 0 mm 4 mps 758 mmHg 42%
    06:00 +25°C° 0 mm 4 mps 758 mmHg 43%
    07:00 +27°C° 0 mm 4 mps 758 mmHg 39%
    08:00 +29°C° 0 mm 5 mps 759 mmHg 35%
    09:00 +33°C° 0 mm 5 mps 759 mmHg 31%
    10:00 +34°C° 0 mm 5 mps 759 mmHg 28%
    11:00 +35°C° 0 mm 5 mps 759 mmHg 25%
    12:00 +37°C° 0 mm 5 mps 758 mmHg 22%
    13:00 +37°C° 0 mm 5 mps 758 mmHg 22%
    14:00 +37°C° 0 mm 5 mps 758 mmHg 22%
    15:00 +36°C° 0 mm 5 mps 758 mmHg 22%
    16:00 +36°C° 0 mm 5 mps 758 mmHg 24%
    17:00 +35°C° 0 mm 5 mps 758 mmHg 26%
    18:00 +35°C° 0 mm 5 mps 758 mmHg 28%
    19:00 +33°C° 0 mm 5 mps 759 mmHg 33%
    20:00 +30°C° 0 mm 5 mps 759 mmHg 38%
    21:00 +29°C° 0 mm 4 mps 760 mmHg 43%
    22:00 +28°C° 0 mm 4 mps 760 mmHg 45%
    23:00 +27°C° 0 mm 5 mps 760 mmHg 47%

    19 August, Sunday

    Time Temperature Precipitation Wind Pressure Humidity
    00:00 +26°C° 0 mm 5 mps 760 mmHg 49%
    01:00 +26°C° 0 mm 5 mps 760 mmHg 49%
    02:00 +25°C° 0 mm 5 mps 760 mmHg 48%
    03:00 +23°C° 0 mm 5 mps 760 mmHg 47%
    04:00 +23°C° 0 mm 5 mps 761 mmHg 47%
    05:00 +22°C° 0 mm 5 mps 761 mmHg 46%
    06:00 +22°C° 0 mm 5 mps 761 mmHg 45%
    07:00 +23°C° 0 mm 5 mps 761 mmHg 42%
    08:00 +26°C° 0 mm 5 mps 761 mmHg 40%
    09:00 +27°C° 0 mm 6 mps 761 mmHg 37%
    10:00 +29°C° 0 mm 6 mps 761 mmHg 34%
    11:00 +30°C° 0 mm 6 mps 761 mmHg 30%
    12:00 +32°C° 0 mm 5 mps 761 mmHg 27%
    13:00 +33°C° 0 mm 5 mps 761 mmHg 25%
    14:00 +33°C° 0 mm 5 mps 760 mmHg 24%
    15:00 +33°C° 0 mm 5 mps 760 mmHg 22%
    16:00 +33°C° 0 mm 5 mps 760 mmHg 22%
    17:00 +32°C° 0 mm 5 mps 760 mmHg 23%
    18:00 +30°C° 0 mm 5 mps 760 mmHg 23%
    19:00 +28°C° 0 mm 5 mps 760 mmHg 25%
    20:00 +26°C° 0 mm 5 mps 761 mmHg 27%
    21:00 +23°C° 0 mm 4 mps 761 mmHg 29%
    22:00 +23°C° 0 mm 4 mps 761 mmHg 30%
    23:00 +22°C° 0 mm 4 mps 761 mmHg 31%

    20 August, Monday

    Time Temperature Precipitation Wind Pressure Humidity
    00:00 +21°C° 0 mm 4 mps 761 mmHg 32%
    01:00 +20°C° 0 mm 4 mps 761 mmHg 34%
    02:00 +20°C° 0 mm 4 mps 761 mmHg 36%
    03:00 +19°C° 0 mm 4 mps 761 mmHg 38%
    04:00 +18°C° 0 mm 4 mps 761 mmHg 40%
    05:00 +18°C° 0 mm 4 mps 761 mmHg 42%
    06:00 +18°C° 0 mm 4 mps 761 mmHg 44%
    07:00 +20°C° 0 mm 4 mps 761 mmHg 39%
    08:00 +22°C° 0 mm 4 mps 762 mmHg 34%
    09:00 +25°C° 0 mm 4 mps 762 mmHg 29%
    10:00 +27°C° 0 mm 4 mps 762 mmHg 26%
    11:00 +28°C° 0 mm 4 mps 761 mmHg 23%
    12:00 +29°C° 0 mm 4 mps 761 mmHg 21%
    13:00 +30°C° 0 mm 4 mps 761 mmHg 19%
    14:00 +32°C° 0 mm 4 mps 761 mmHg 18%
    15:00 +32°C° 0 mm 4 mps 761 mmHg 17%
    16:00 +32°C° 0 mm 4 mps 761 mmHg 17%
    17:00 +30°C° 0 mm 4 mps 761 mmHg 18%
    18:00 +30°C° 0 mm 4 mps 760 mmHg 19%
    19:00 +28°C° 0 mm 4 mps 761 mmHg 22%
    20:00 +25°C° 0 mm 3 mps 761 mmHg 25%
    21:00 +22°C° 0 mm 3 mps 761 mmHg 29%
    22:00 +22°C° 0 mm 3 mps 761 mmHg 31%
    23:00 +21°C° 0 mm 3 mps 761 mmHg 33%
    Show more